Time,TemperatureF,DewpointF,PressureIn,WindDirection,WindDirectionDegrees,WindSpeedMPH,WindSpeedGustMPH,Humidity,HourlyPrecipIn,Conditions,Clouds,dailyrainin,SoftwareType,DateUTC
2013-11-08 00:13:00,38.0,-99.9,-100.00,WNW,288,1.0,3.0,-999,0.00,,,0.00,,2013-11-08 06:13:00,
2013-11-08 00:23:00,38.0,-99.9,-100.00,WNW,288,1.0,3.0,-999,0.00,,,0.00,,2013-11-08 06:23:00,
2013-11-08 00:42:00,35.0,-99.9,-100.00,SE,145,0.0,1.0,-999,0.00,,,0.00,,2013-11-08 06:42:00,
2013-11-08 00:53:00,35.0,-99.9,-100.00,SE,145,0.0,1.0,-999,0.00,,,0.00,,2013-11-08 06:53:00,
2013-11-08 01:12:00,35.0,-99.9,-100.00,South,176,0.0,1.0,-999,0.00,,,0.00,,2013-11-08 07:12:00,
2013-11-08 01:22:00,35.0,-99.9,-100.00,South,176,0.0,1.0,-999,0.00,,,0.00,,2013-11-08 07:22:00,
2013-11-08 01:42:00,32.0,-99.9,-100.00,SSE,154,2.0,2.0,-999,0.00,,,0.00,,2013-11-08 07:42:00,
2013-11-08 01:52:00,32.0,-99.9,-100.00,SSE,154,2.0,2.0,-999,0.00,,,0.00,,2013-11-08 07:52:00,
2013-11-08 02:12:00,31.0,-99.9,-100.00,South,182,2.0,3.0,-999,0.00,,,0.00,,2013-11-08 08:12:00,
2013-11-08 02:22:00,31.0,-99.9,-100.00,South,182,2.0,3.0,-999,0.00,,,0.00,,2013-11-08 08:22:00,
2013-11-08 02:42:00,30.0,-99.9,-100.00,SE,144,2.0,2.0,-999,0.00,,,0.00,,2013-11-08 08:42:00,
2013-11-08 02:52:00,30.0,-99.9,-100.00,SE,144,2.0,2.0,-999,0.00,,,0.00,,2013-11-08 08:52:00,
2013-11-08 03:12:00,31.0,-99.9,-100.00,SE,138,2.0,3.0,-999,0.00,,,0.00,,2013-11-08 09:12:00,
2013-11-08 03:22:00,31.0,-99.9,-100.00,SE,138,2.0,3.0,-999,0.00,,,0.00,,2013-11-08 09:22:00,
2013-11-08 03:43:00,31.0,-99.9,-100.00,South,174,1.0,2.0,-999,0.00,,,0.00,,2013-11-08 09:43:00,
2013-11-08 03:54:00,31.0,-99.9,-100.00,South,174,1.0,2.0,-999,0.00,,,0.00,,2013-11-08 09:54:00,
2013-11-08 04:13:00,30.0,-99.9,-100.00,SSE,161,1.0,2.0,-999,0.00,,,0.00,,2013-11-08 10:13:00,
2013-11-08 04:23:00,30.0,-99.9,-100.00,SSE,161,1.0,2.0,-999,0.00,,,0.00,,2013-11-08 10:23:00,
2013-11-08 04:43:00,30.0,-99.9,-100.00,SSE,157,2.0,2.0,-999,0.00,,,0.00,,2013-11-08 10:43:00,
2013-11-08 04:53:00,30.0,-99.9,-100.00,SSE,157,2.0,2.0,-999,0.00,,,0.00,,2013-11-08 10:53:00,
2013-11-08 05:12:00,30.0,-99.9,-100.00,SSE,157,1.0,2.0,-999,0.00,,,-99.99,,2013-11-08 11:12:00,
2013-11-08 05:22:00,30.0,-99.9,-100.00,SSE,157,1.0,2.0,-999,0.00,,,-99.99,,2013-11-08 11:22:00,
2013-11-08 05:43:00,29.0,-99.9,-100.00,SSE,159,2.0,2.0,-999,0.00,,,0.00,,2013-11-08 11:43:00,
2013-11-08 05:52:00,29.0,-99.9,-100.00,SSE,159,2.0,2.0,-999,0.00,,,0.00,,2013-11-08 11:52:00,
2013-11-08 06:12:00,29.0,-99.9,-100.00,SSE,154,3.0,4.0,-999,0.00,,,-99.99,,2013-11-08 12:12:00,
2013-11-08 06:22:00,29.0,-99.9,-100.00,SSE,154,3.0,4.0,-999,0.00,,,-99.99,,2013-11-08 12:22:00,
2013-11-08 06:42:00,28.0,-99.9,-100.00,SSE,163,2.0,3.0,-999,0.00,,,0.00,,2013-11-08 12:42:00,
2013-11-08 06:52:00,28.0,-99.9,-100.00,SSE,163,2.0,3.0,-999,0.00,,,0.00,,2013-11-08 12:52:00,
2013-11-08 07:11:00,29.0,-99.9,-100.00,SSE,166,2.0,3.0,-999,0.00,,,0.00,,2013-11-08 13:11:00,
2013-11-08 07:22:00,29.0,-99.9,-100.00,SSE,166,2.0,3.0,-999,0.00,,,0.00,,2013-11-08 13:22:00,
2013-11-08 07:42:00,30.0,-99.9,-100.00,SSE,161,3.0,4.0,-999,0.00,,,0.00,,2013-11-08 13:42:00,
2013-11-08 07:52:00,30.0,-99.9,-100.00,SSE,161,3.0,4.0,-999,0.00,,,0.00,,2013-11-08 13:52:00,
2013-11-08 08:11:00,31.0,-99.9,-100.00,SSE,149,4.0,4.0,-999,0.00,,,0.00,,2013-11-08 14:11:00,
2013-11-08 08:22:00,31.0,-99.9,-100.00,SSE,149,4.0,4.0,-999,0.00,,,0.00,,2013-11-08 14:22:00,
2013-11-08 08:42:00,34.0,-99.9,-100.00,South,174,4.0,4.0,-999,0.00,,,0.00,,2013-11-08 14:42:00,
2013-11-08 08:52:00,34.0,-99.9,-100.00,South,174,4.0,4.0,-999,0.00,,,0.00,,2013-11-08 14:52:00,
2013-11-08 09:11:00,37.0,-99.9,-100.00,SSE,155,4.0,6.0,-999,0.00,,,0.00,,2013-11-08 15:11:00,
2013-11-08 09:22:00,37.0,-99.9,-100.00,SSE,155,4.0,6.0,-999,0.00,,,0.00,,2013-11-08 15:22:00,
2013-11-08 09:44:00,37.0,-99.9,-100.00,SSE,151,5.0,6.0,-999,0.00,,,0.00,,2013-11-08 15:44:00,
2013-11-08 09:53:00,37.0,-99.9,-100.00,SSE,151,5.0,6.0,-999,0.00,,,0.00,,2013-11-08 15:53:00,
2013-11-08 10:13:00,40.0,-99.9,-100.00,SSE,167,5.0,7.0,-999,0.00,,,0.00,,2013-11-08 16:13:00,
2013-11-08 10:23:00,40.0,-99.9,-100.00,SSE,167,5.0,7.0,-999,0.00,,,0.00,,2013-11-08 16:23:00,
2013-11-08 10:42:00,42.0,-99.9,-100.00,SSE,167,5.0,8.0,-999,0.00,,,0.00,,2013-11-08 16:42:00,
2013-11-08 10:53:00,42.0,-99.9,-100.00,SSE,167,5.0,8.0,-999,0.00,,,0.00,,2013-11-08 16:53:00,
2013-11-08 11:12:00,44.0,-99.9,-100.00,SSE,154,6.0,10.0,-999,0.00,,,0.00,,2013-11-08 17:12:00,
2013-11-08 11:22:00,44.0,-99.9,-100.00,SSE,154,6.0,10.0,-999,0.00,,,0.00,,2013-11-08 17:22:00,
2013-11-08 11:43:00,45.0,-99.9,-100.00,SSE,148,6.0,8.0,-999,0.00,,,0.00,,2013-11-08 17:43:00,
2013-11-08 11:53:00,45.0,-99.9,-100.00,SSE,148,6.0,8.0,-999,0.00,,,0.00,,2013-11-08 17:53:00,
2013-11-08 12:12:00,46.0,-99.9,-100.00,SSE,155,8.0,10.0,-999,0.00,,,0.00,,2013-11-08 18:12:00,
2013-11-08 12:22:00,46.0,-99.9,-100.00,SSE,155,8.0,10.0,-999,0.00,,,0.00,,2013-11-08 18:22:00,
2013-11-08 12:43:00,48.0,-99.9,-100.00,SSE,161,7.0,12.0,-999,0.00,,,0.00,,2013-11-08 18:43:00,
2013-11-08 12:53:00,48.0,-99.9,-100.00,SSE,161,7.0,12.0,-999,0.00,,,0.00,,2013-11-08 18:53:00,
2013-11-08 13:12:00,49.0,-99.9,-100.00,SE,145,9.0,13.0,-999,0.00,,,0.00,,2013-11-08 19:12:00,
2013-11-08 13:22:00,49.0,-99.9,-100.00,SE,145,9.0,13.0,-999,0.00,,,0.00,,2013-11-08 19:22:00,
2013-11-08 13:42:00,53.0,-99.9,-100.00,SSE,152,9.0,11.0,-999,0.00,,,0.00,,2013-11-08 19:42:00,
2013-11-08 13:53:00,53.0,-99.9,-100.00,SSE,152,9.0,11.0,-999,0.00,,,0.00,,2013-11-08 19:53:00,
2013-11-08 14:12:00,57.0,-99.9,-100.00,SSE,157,9.0,14.0,-999,0.00,,,-99.99,,2013-11-08 20:12:00,
2013-11-08 14:22:00,57.0,-99.9,-100.00,SSE,157,9.0,14.0,-999,0.00,,,-99.99,,2013-11-08 20:22:00,
2013-11-08 14:42:00,56.0,-99.9,-100.00,SSE,160,8.0,11.0,-999,0.00,,,0.00,,2013-11-08 20:42:00,
2013-11-08 14:53:00,56.0,-99.9,-100.00,SSE,160,8.0,11.0,-999,0.00,,,0.00,,2013-11-08 20:53:00,
2013-11-08 15:12:00,56.0,-99.9,-100.00,SSE,157,9.0,12.0,-999,0.00,,,0.00,,2013-11-08 21:12:00,
2013-11-08 15:23:00,56.0,-99.9,-100.00,SSE,157,9.0,12.0,-999,0.00,,,0.00,,2013-11-08 21:23:00,
2013-11-08 15:45:00,56.0,-99.9,-100.00,SSE,152,10.0,15.0,-999,0.00,,,0.00,,2013-11-08 21:45:00,
2013-11-08 15:54:00,56.0,-99.9,-100.00,SSE,152,10.0,15.0,-999,0.00,,,0.00,,2013-11-08 21:54:00,
2013-11-08 16:14:00,56.0,-99.9,-100.00,SSE,159,9.0,11.0,-999,0.00,,,0.00,,2013-11-08 22:14:00,
2013-11-08 16:24:00,56.0,-99.9,-100.00,SSE,159,9.0,11.0,-999,0.00,,,0.00,,2013-11-08 22:24:00,
2013-11-08 16:43:00,55.0,-99.9,-100.00,SSE,149,11.0,19.0,-999,0.00,,,0.00,,2013-11-08 22:43:00,
2013-11-08 16:53:00,55.0,-99.9,-100.00,SSE,149,11.0,19.0,-999,0.00,,,0.00,,2013-11-08 22:53:00,
2013-11-08 17:12:00,54.0,-99.9,-100.00,SSE,151,11.0,17.0,-999,0.00,,,0.00,,2013-11-08 23:12:00,
2013-11-08 17:22:00,54.0,-99.9,-100.00,SSE,151,11.0,17.0,-999,0.00,,,0.00,,2013-11-08 23:22:00,
2013-11-08 17:43:00,51.0,-99.9,-100.00,SSE,158,7.0,8.0,-999,0.00,,,0.00,,2013-11-08 23:43:00,
2013-11-08 17:53:00,51.0,-99.9,-100.00,SSE,158,7.0,8.0,-999,0.00,,,0.00,,2013-11-08 23:53:00,
2013-11-08 18:12:00,51.0,-99.9,-100.00,SSE,156,7.0,9.0,-999,0.00,,,0.00,,2013-11-09 00:12:00,
2013-11-08 18:22:00,51.0,-99.9,-100.00,SSE,156,7.0,9.0,-999,0.00,,,0.00,,2013-11-09 00:22:00,
2013-11-08 18:42:00,50.0,-99.9,-100.00,SSE,148,10.0,13.0,-999,0.00,,,0.00,,2013-11-09 00:42:00,
2013-11-08 18:52:00,50.0,-99.9,-100.00,SSE,148,10.0,13.0,-999,0.00,,,0.00,,2013-11-09 00:52:00,
2013-11-08 19:00:00,47.0,-99.9,-100.00,SSE,162,5.0,6.0,-999,0.00,,,0.00,,2013-11-09 01:00:00,
2013-11-08 19:12:00,48.0,-99.9,-100.00,SSE,165,8.0,10.0,-999,0.00,,,0.00,,2013-11-09 01:12:00,
2013-11-08 19:22:00,48.0,-99.9,-100.00,SSE,165,8.0,10.0,-999,0.00,,,0.00,,2013-11-09 01:22:00,
2013-11-08 19:42:00,47.0,-99.9,-100.00,SSE,162,5.0,6.0,-999,0.00,,,0.00,,2013-11-09 01:42:00,
2013-11-08 19:52:00,47.0,-99.9,-100.00,SSE,162,5.0,6.0,-999,0.00,,,0.00,,2013-11-09 01:52:00,
2013-11-08 20:42:00,49.0,-99.9,-100.00,SSE,160,5.0,6.0,-999,0.00,,,0.00,,2013-11-09 02:42:00,
2013-11-08 20:52:00,49.0,-99.9,-100.00,SSE,160,5.0,6.0,-999,0.00,,,0.00,,2013-11-09 02:52:00,
2013-11-08 21:12:00,52.0,-99.9,-100.00,South,175,8.0,12.0,-999,0.00,,,0.00,,2013-11-09 03:12:00,
2013-11-08 21:22:00,52.0,-99.9,-100.00,South,175,8.0,12.0,-999,0.00,,,0.00,,2013-11-09 03:22:00,
2013-11-08 21:44:00,51.0,-99.9,-100.00,South,180,7.0,10.0,-999,0.00,,,0.00,,2013-11-09 03:44:00,
2013-11-08 21:55:00,51.0,-99.9,-100.00,South,180,7.0,10.0,-999,0.00,,,0.00,,2013-11-09 03:55:00,
2013-11-08 22:13:00,50.0,-99.9,-100.00,South,180,6.0,11.0,-999,0.00,,,0.00,,2013-11-09 04:13:00,
2013-11-08 22:23:00,50.0,-99.9,-100.00,South,180,6.0,11.0,-999,0.00,,,0.00,,2013-11-09 04:23:00,
2013-11-08 22:43:00,51.0,-99.9,-100.00,South,187,8.0,11.0,-999,0.00,,,0.00,,2013-11-09 04:43:00,
2013-11-08 22:54:00,51.0,-99.9,-100.00,South,187,8.0,11.0,-999,0.00,,,0.00,,2013-11-09 04:54:00,
2013-11-08 23:13:00,51.0,-99.9,-100.00,South,184,8.0,13.0,-999,0.00,,,0.00,,2013-11-09 05:13:00,
2013-11-08 23:23:00,51.0,-99.9,-100.00,South,184,8.0,13.0,-999,0.00,,,0.00,,2013-11-09 05:23:00,
2013-11-08 23:44:00,51.0,-99.9,-100.00,South,188,7.0,10.0,-999,0.00,,,0.00,,2013-11-09 05:44:00,
2013-11-08 23:53:00,51.0,-99.9,-100.00,South,188,7.0,10.0,-999,0.00,,,0.00,,2013-11-09 05:53:00,